| time (UTC) | temp C | wind direction | speed KPH | gust KPH | rain 1hr cm | rain 24hr cm | rain mn cm | humidity % | barometer mb |
| 20260505153049 | 18 | 174 | 11.3 | 24.1 | 0.00 | 0.18 | 0.00 | 58 | 1005.0 |
| 20260505152517 | 17 | 191 | 12.9 | 17.7 | 0.00 | 0.18 | 0.00 | 59 | 1005.1 |
| 20260505152015 | 17 | 238 | 9.7 | 16.1 | 0.00 | 0.18 | 0.00 | 62 | 1005.3 |
| 20260505151550 | 16 | 197 | 6.4 | 14.5 | 0.00 | 0.18 | 0.00 | 63 | 1005.3 |
| 20260505151018 | 16 | 202 | 4.8 | 17.7 | 0.00 | 0.18 | 0.00 | 63 | 1005.3 |
| 20260505150519 | 16 | 174 | 8.0 | 19.3 | 0.00 | 0.18 | 0.00 | 64 | 1005.6 |
| 20260505140519 | 15 | 178 | 14.5 | 35.4 | 0.00 | 0.18 | 0.00 | 65 | 1006.0 |
| 20260505125020 | 12 | 193 | 6.4 | 16.1 | 0.00 | 0.18 | 0.00 | 74 | 1006.1 |
| 20260505124546 | 12 | 182 | 8.0 | 22.5 | 0.00 | 0.18 | 0.00 | 75 | 1006.0 |
| 20260505124023 | 12 | 183 | 12.9 | 22.5 | 0.00 | 0.18 | 0.00 | 77 | 1006.0 |
| 20260505123520 | 11 | 173 | 9.7 | 22.5 | 0.00 | 0.18 | 0.00 | 81 | 1006.1 |
| 20260505123038 | 10 | 151 | 8.0 | 19.3 | 0.00 | 0.18 | 0.00 | 88 | 1006.1 |
| 20260505122518 | 8 | 170 | 3.2 | 6.4 | 0.00 | 0.18 | 0.00 | 92 | 1006.2 |
| 20260505122019 | 8 | 195 | 1.6 | 6.4 | 0.00 | 0.18 | 0.00 | 95 | 1006.1 |
| 20260505121553 | 7 | 186 | 3.2 | 8.0 | 0.00 | 0.18 | 0.00 | 98 | 1006.5 |
| 20260505121016 | 6 | 160 | 3.2 | 8.0 | 0.00 | 0.18 | 0.00 | 98 | 1006.5 |
| 20260505120526 | 6 | 169 | 1.6 | 8.0 | 0.00 | 0.18 | 0.00 | 98 | 1006.5 |
| 20260505120051 | 6 | 164 | 1.6 | 4.8 | 0.00 | 0.18 | 0.00 | 98 | 1006.7 |
| 20260505115513 | 5 | 164 | 0.0 | 4.8 | 0.00 | 0.18 | 0.00 | 98 | 1006.8 |
| 20260505115016 | 5 | 164 | 1.6 | 4.8 | 0.00 | 0.18 | 0.00 | 98 | 1006.8 |
| 20260505114538 | 5 | 164 | 0.0 | 3.2 | 0.00 | 0.18 | 0.00 | 98 | 1006.6 |
| 20260505114014 | 5 | 164 | 0.0 | 3.2 | 0.00 | 0.18 | 0.00 | 98 | 1006.7 |
| 20260505113513 | 4 | 164 | 0.0 | 3.2 | 0.00 | 0.18 | 0.00 | 98 | 1006.7 |
| 20260505113042 | 4 | 160 | 0.0 | 3.2 | 0.00 | 0.18 | 0.00 | 98 | 1006.5 |
| 20260505112513 | 3 | 160 | 0.0 | 3.2 | 0.00 | 0.18 | 0.00 | 98 | 1006.5 |
| 20260505112007 | 3 | 160 | 0.0 | 1.6 | 0.00 | 0.18 | 0.00 | 98 | 1006.8 |
| 20260505111543 | 3 | 160 | 0.0 | 1.6 | 0.00 | 0.18 | 0.00 | 98 | 1007.0 |
| 20260505111016 | 2 | 160 | 0.0 | 0.0 | 0.00 | 0.18 | 0.00 | 98 | 1007.0 |
| 20260505110516 | 2 | 160 | 0.0 | 3.2 | 0.00 | 0.18 | 0.00 | 97 | 1007.2 |
| 20260505102017 | 1 | 160 | 0.0 | 0.0 | 0.00 | 0.18 | 0.00 | 96 | 1006.8 |
| 20260505101549 | 1 | 160 | 0.0 | 0.0 | 0.00 | 0.18 | 0.00 | 96 | 1006.8 |
| 20260505101018 | 1 | 160 | 0.0 | 0.0 | 0.00 | 0.18 | 0.00 | 97 | 1006.9 |
| 20260505100513 | 1 | 160 | 0.0 | 0.0 | 0.00 | 0.18 | 0.00 | 96 | 1006.8 |
| 20260505100026 | 1 | 160 | 0.0 | 1.6 | 0.00 | 0.18 | 0.00 | 96 | 1007.1 |
| 20260505095513 | 1 | 160 | 0.0 | 1.6 | 0.00 | 0.18 | 0.00 | 96 | 1007.0 |
| 20260505095014 | 1 | 160 | 0.0 | 1.6 | 0.00 | 0.18 | 0.00 | 96 | 1007.1 |
| 20260505094526 | 1 | 160 | 0.0 | 1.6 | 0.00 | 0.18 | 0.00 | 96 | 1007.0 |
| 20260505094014 | 1 | 160 | 0.0 | 3.2 | 0.00 | 0.18 | 0.00 | 96 | 1007.2 |
| 20260505093515 | 1 | 160 | 0.0 | 3.2 | 0.00 | 0.18 | 0.00 | 96 | 1007.1 |
| 20260505093040 | 1 | 160 | 0.0 | 0.0 | 0.00 | 0.18 | 0.00 | 96 | 1007.0 |
| 20260505092512 | 1 | 160 | 0.0 | 1.6 | 0.00 | 0.18 | 0.00 | 96 | 1007.0 |
| 20260505092017 | 1 | 160 | 0.0 | 1.6 | 0.00 | 0.18 | 0.00 | 96 | 1007.0 |
| 20260505091539 | 1 | 160 | 0.0 | 1.6 | 0.00 | 0.18 | 0.00 | 96 | 1007.1 |
| 20260505091013 | 1 | 160 | 0.0 | 1.6 | 0.00 | 0.18 | 0.00 | 95 | 1007.0 |
| 20260505090513 | 1 | 160 | 0.0 | 1.6 | 0.00 | 0.18 | 0.00 | 95 | 1007.1 |
| 20260505090045 | 1 | 160 | 0.0 | 1.6 | 0.00 | 0.18 | 0.00 | 95 | 1007.1 |
| 20260505085514 | 1 | 160 | 0.0 | 1.6 | 0.00 | 0.18 | 0.00 | 96 | 1006.9 |
| 20260505085012 | 1 | 160 | 0.0 | 1.6 | 0.00 | 0.18 | 0.00 | 95 | 1007.1 |
| 20260505084550 | 1 | 160 | 0.0 | 1.6 | 0.00 | 0.18 | 0.00 | 95 | 1007.0 |
| 20260505084011 | 1 | 160 | 0.0 | 1.6 | 0.00 | 0.18 | 0.00 | 96 | 1007.1 |
| 20260505083518 | 1 | 160 | 0.0 | 3.2 | 0.00 | 0.18 | 0.00 | 96 | 1007.2 |
| 20260505083058 | 1 | 160 | 0.0 | 3.2 | 0.00 | 0.18 | 0.00 | 95 | 1007.0 |
| 20260505082515 | 2 | 160 | 1.6 | 3.2 | 0.00 | 0.18 | 0.00 | 96 | 1007.2 |
| 20260505082016 | 2 | 160 | 0.0 | 1.6 | 0.00 | 0.18 | 0.00 | 96 | 1007.1 |
| 20260505081552 | 2 | 160 | 0.0 | 3.2 | 0.00 | 0.18 | 0.00 | 96 | 1007.2 |
| 20260505081018 | 2 | 160 | 0.0 | 1.6 | 0.00 | 0.18 | 0.00 | 96 | 1007.1 |
| 20260505080516 | 2 | 160 | 0.0 | 0.0 | 0.00 | 0.18 | 0.00 | 96 | 1007.2 |
| 20260505080048 | 2 | 160 | 0.0 | 0.0 | 0.00 | 0.18 | 0.00 | 96 | 1007.3 |
| 20260505075510 | 2 | 160 | 0.0 | 3.2 | 0.00 | 0.18 | 0.00 | 96 | 1007.3 |
| 20260505075014 | 2 | 160 | 0.0 | 3.2 | 0.00 | 0.18 | 0.00 | 96 | 1007.4 |
| 20260505074538 | 2 | 160 | 0.0 | 3.2 | 0.00 | 0.18 | 0.00 | 96 | 1007.3 |
| 20260505074014 | 2 | 160 | 0.0 | 1.6 | 0.00 | 0.18 | 0.00 | 96 | 1007.2 |
| 20260505073516 | 2 | 160 | 0.0 | 3.2 | 0.00 | 0.18 | 0.00 | 96 | 1007.3 |
| 20260505073044 | 2 | 160 | 0.0 | 4.8 | 0.00 | 0.18 | 0.00 | 96 | 1007.3 |
| 20260505072516 | 2 | 160 | 0.0 | 0.0 | 0.00 | 0.18 | 0.00 | 96 | 1007.4 |
| 20260505072016 | 2 | 160 | 0.0 | 0.0 | 0.00 | 0.18 | 0.00 | 96 | 1007.6 |
| 20260505071548 | 2 | 160 | 0.0 | 0.0 | 0.00 | 0.18 | 0.00 | 96 | 1007.5 |
| 20260505071019 | 2 | 160 | 0.0 | 0.0 | 0.00 | 0.18 | 0.00 | 96 | 1007.6 |
| 20260505070517 | 2 | 160 | 0.0 | 0.0 | 0.00 | 0.18 | 0.00 | 96 | 1007.5 |
| 20260505070044 | 2 | 160 | 0.0 | 0.0 | 0.00 | 0.18 | 0.00 | 96 | 1007.4 |
| 20260505065511 | 3 | 160 | 0.0 | 0.0 | 0.00 | 0.18 | 0.00 | 96 | 1007.4 |
| 20260505065015 | 3 | 160 | 0.0 | 0.0 | 0.00 | 0.18 | 0.00 | 96 | 1007.4 |
| 20260505064541 | 3 | 160 | 0.0 | 1.6 | 0.00 | 0.18 | 0.00 | 96 | 1007.5 |
| 20260505064014 | 3 | 160 | 0.0 | 1.6 | 0.00 | 0.18 | 0.00 | 96 | 1007.4 |
| 20260505063513 | 3 | 160 | 0.0 | 1.6 | 0.00 | 0.18 | 0.00 | 96 | 1007.3 |
| 20260505063027 | 3 | 160 | 0.0 | 0.0 | 0.00 | 0.18 | 0.00 | 96 | 1007.3 |
| 20260505062516 | 3 | 160 | 0.0 | 0.0 | 0.00 | 0.18 | 0.00 | 96 | 1007.3 |
| 20260505062014 | 3 | 160 | 0.0 | 0.0 | 0.00 | 0.18 | 0.00 | 96 | 1007.4 |
| 20260505061538 | 3 | 160 | 0.0 | 0.0 | 0.00 | 0.18 | 0.00 | 96 | 1007.4 |
| 20260505061013 | 3 | 160 | 0.0 | 0.0 | 0.00 | 0.18 | 0.00 | 95 | 1007.4 |
| 20260505060511 | 3 | 160 | 0.0 | 0.0 | 0.00 | 0.18 | 0.00 | 95 | 1007.5 |
| 20260505060048 | 3 | 160 | 0.0 | 0.0 | 0.00 | 0.18 | 0.00 | 96 | 1007.4 |
| 20260505055514 | 3 | 160 | 0.0 | 0.0 | 0.00 | 0.18 | 0.00 | 95 | 1007.5 |
| 20260505055016 | 3 | 160 | 0.0 | 1.6 | 0.00 | 0.18 | 0.00 | 96 | 1007.6 |
| 20260505054552 | 3 | 160 | 0.0 | 1.6 | 0.00 | 0.18 | 0.00 | 96 | 1007.7 |
| 20260505054015 | 3 | 160 | 0.0 | 0.0 | 0.00 | 0.18 | 0.00 | 96 | 1007.6 |
| 20260505053514 | 3 | 160 | 0.0 | 0.0 | 0.00 | 0.18 | 0.00 | 96 | 1007.5 |
| 20260505053039 | 3 | 160 | 0.0 | 0.0 | 0.00 | 0.18 | 0.00 | 95 | 1007.5 |
| 20260505052515 | 3 | 160 | 0.0 | 0.0 | 0.00 | 0.18 | 0.00 | 95 | 1007.5 |
| 20260505052018 | 3 | 160 | 0.0 | 0.0 | 0.00 | 0.18 | 0.00 | 95 | 1007.4 |
| 20260505051545 | 3 | 160 | 0.0 | 0.0 | 0.00 | 0.18 | 0.00 | 95 | 1007.4 |
| 20260505051015 | 3 | 160 | 0.0 | 0.0 | 0.00 | 0.18 | 0.00 | 95 | 1007.5 |
| 20260505050515 | 4 | 160 | 0.0 | 3.2 | 0.00 | 0.18 | 0.00 | 96 | 1007.4 |
| 20260505041549 | 5 | 160 | 0.0 | 11.3 | 0.00 | 0.18 | 0.00 | 95 | 1007.5 |
| 20260505041015 | 5 | 160 | 1.6 | 11.3 | 0.00 | 0.18 | 0.00 | 96 | 1007.7 |
| 20260505040513 | 5 | 176 | 1.6 | 8.0 | 0.00 | 0.18 | 0.00 | 96 | 1007.7 |
| 20260505040057 | 5 | 170 | 4.8 | 12.9 | 0.00 | 0.18 | 0.00 | 97 | 1007.6 |
| 20260505035517 | 5 | 172 | 6.4 | 12.9 | 0.00 | 0.18 | 0.18 | 97 | 1007.6 |
| 20260505035017 | 4 | 170 | 4.8 | 9.7 | 0.00 | 0.18 | 0.18 | 96 | 1007.4 |
| 20260505034539 | 4 | 169 | 0.0 | 4.8 | 0.00 | 0.18 | 0.18 | 96 | 1007.4 |
| 20260505034014 | 4 | 170 | 1.6 | 3.2 | 0.00 | 0.18 | 0.18 | 95 | 1007.2 |
| 20260505033518 | 4 | 170 | 1.6 | 6.4 | 0.00 | 0.18 | 0.18 | 96 | 1007.2 |
| 20260505033035 | 5 | 170 | 1.6 | 8.0 | 0.00 | 0.18 | 0.18 | 96 | 1007.2 |
| 20260505032515 | 5 | 166 | 3.2 | 6.4 | 0.00 | 0.18 | 0.18 | 96 | 1007.3 |
| 20260505032016 | 5 | 164 | 0.0 | 4.8 | 0.00 | 0.18 | 0.18 | 96 | 1007.2 |
| 20260505031558 | 5 | 164 | 0.0 | 6.4 | 0.00 | 0.18 | 0.18 | 96 | 1007.2 |
| 20260505031015 | 5 | 162 | 4.8 | 6.4 | 0.00 | 0.18 | 0.18 | 96 | 1007.1 |
| 20260505030514 | 5 | 338 | 0.0 | 0.0 | 0.00 | 0.18 | 0.18 | 96 | 1007.1 |
| 20260505030058 | 5 | 338 | 0.0 | 0.0 | 0.00 | 0.18 | 0.18 | 96 | 1007.1 |
| 20260505025517 | 5 | 338 | 0.0 | 0.0 | 0.00 | 0.18 | 0.18 | 96 | 1007.3 |
| 20260505025015 | 5 | 338 | 0.0 | 0.0 | 0.00 | 0.18 | 0.18 | 96 | 1007.2 |
| 20260505024543 | 5 | 338 | 0.0 | 3.2 | 0.00 | 0.18 | 0.18 | 96 | 1007.3 |
| 20260505024014 | 5 | 338 | 0.0 | 3.2 | 0.00 | 0.18 | 0.18 | 96 | 1007.4 |
| 20260505023518 | 5 | 338 | 0.0 | 3.2 | 0.00 | 0.18 | 0.18 | 95 | 1007.4 |
| 20260505023051 | 4 | 338 | 0.0 | 0.0 | 0.00 | 0.18 | 0.18 | 95 | 1007.5 |
| 20260505022516 | 4 | 338 | 0.0 | 1.6 | 0.00 | 0.18 | 0.18 | 95 | 1007.5 |
| 20260505022015 | 4 | 338 | 0.0 | 3.2 | 0.00 | 0.18 | 0.18 | 95 | 1007.7 |
| 20260505021552 | 4 | 338 | 1.6 | 3.2 | 0.00 | 0.18 | 0.18 | 94 | 1007.7 |
| 20260505021016 | 5 | 338 | 0.0 | 3.2 | 0.00 | 0.18 | 0.18 | 95 | 1007.8 |
| 20260505020514 | 5 | 338 | 0.0 | 6.4 | 0.00 | 0.18 | 0.18 | 94 | 1007.7 |
| 20260505020025 | 5 | 338 | 1.6 | 6.4 | 0.00 | 0.18 | 0.18 | 94 | 1007.7 |
| 20260505015519 | 5 | 338 | 0.0 | 0.0 | 0.00 | 0.18 | 0.18 | 94 | 1007.6 |
| 20260505015017 | 5 | 338 | 0.0 | 1.6 | 0.00 | 0.18 | 0.18 | 94 | 1007.5 |
| 20260505014603 | 5 | 338 | 0.0 | 1.6 | 0.00 | 0.18 | 0.18 | 94 | 1007.5 |
| 20260505014018 | 5 | 338 | 0.0 | 0.0 | 0.00 | 0.18 | 0.18 | 93 | 1007.6 |
| 20260505013515 | 5 | 338 | 0.0 | 0.0 | 0.00 | 0.18 | 0.18 | 93 | 1007.5 |
| 20260505013051 | 5 | 338 | 0.0 | 0.0 | 0.00 | 0.18 | 0.18 | 93 | 1007.5 |
| 20260505012516 | 5 | 338 | 0.0 | 0.0 | 0.00 | 0.18 | 0.18 | 93 | 1007.4 |
| 20260505012012 | 5 | 338 | 0.0 | 0.0 | 0.00 | 0.18 | 0.18 | 93 | 1007.4 |
| 20260505011608 | 6 | 338 | 0.0 | 0.0 | 0.00 | 0.18 | 0.18 | 93 | 1007.5 |
| 20260505011009 | 6 | 338 | 0.0 | 0.0 | 0.00 | 0.18 | 0.18 | 93 | 1007.4 |
| 20260505010515 | 6 | 338 | 0.0 | 0.0 | 0.00 | 0.18 | 0.18 | 93 | 1007.4 |
| 20260505010100 | 6 | 338 | 0.0 | 0.0 | 0.00 | 0.18 | 0.18 | 93 | 1007.3 |
| 20260505005516 | 6 | 338 | 0.0 | 0.0 | 0.00 | 0.18 | 0.18 | 93 | 1007.2 |
| 20260505005016 | 6 | 338 | 0.0 | 0.0 | 0.00 | 0.18 | 0.18 | 93 | 1007.2 |
| 20260505004556 | 6 | 338 | 0.0 | 0.0 | 0.00 | 0.18 | 0.18 | 93 | 1007.0 |
| 20260505004019 | 6 | 338 | 0.0 | 1.6 | 0.00 | 0.18 | 0.18 | 93 | 1007.0 |
| 20260505003515 | 7 | 338 | 0.0 | 3.2 | 0.00 | 0.18 | 0.18 | 93 | 1006.9 |
| 20260505003102 | 7 | 338 | 0.0 | 1.6 | 0.00 | 0.18 | 0.18 | 93 | 1006.9 |
| 20260505002517 | 7 | 338 | 0.0 | 3.2 | 0.00 | 0.18 | 0.18 | 93 | 1006.8 |
| 20260505002017 | 7 | 338 | 0.0 | 3.2 | 0.00 | 0.18 | 0.18 | 92 | 1006.8 |
| 20260505001553 | 7 | 338 | 0.0 | 3.2 | 0.00 | 0.18 | 0.18 | 92 | 1006.7 |
| 20260505001016 | 7 | 338 | 0.0 | 3.2 | 0.00 | 0.18 | 0.18 | 91 | 1006.8 |
| 20260505000514 | 7 | 338 | 0.0 | 1.6 | 0.00 | 0.18 | 0.18 | 90 | 1006.8 |
| 20260505000028 | 8 | 338 | 0.0 | 1.6 | 0.00 | 0.18 | 0.18 | 91 | 1006.7 |
| 20260504235509 | 8 | 338 | 0.0 | 0.0 | 0.00 | 0.18 | 0.18 | 90 | 1006.5 |
| 20260504235016 | 8 | 338 | 0.0 | 1.6 | 0.00 | 0.18 | 0.18 | 90 | 1006.4 |
| 20260504234551 | 8 | 338 | 0.0 | 1.6 | 0.00 | 0.18 | 0.18 | 90 | 1006.1 |
| 20260504234016 | 8 | 338 | 0.0 | 3.2 | 0.00 | 0.18 | 0.18 | 89 | 1006.0 |
| 20260504233516 | 8 | 338 | 0.0 | 3.2 | 0.00 | 0.18 | 0.18 | 88 | 1006.0 |
| 20260504233052 | 8 | 338 | 0.0 | 3.2 | 0.00 | 0.18 | 0.18 | 87 | 1005.9 |
| 20260504232516 | 8 | 338 | 0.0 | 3.2 | 0.00 | 0.18 | 0.18 | 88 | 1006.0 |
| 20260504232017 | 8 | 338 | 0.0 | 1.6 | 0.00 | 0.18 | 0.18 | 89 | 1005.9 |
| 20260504231557 | 9 | 338 | 0.0 | 1.6 | 0.00 | 0.18 | 0.18 | 88 | 1005.8 |
| 20260504231016 | 9 | 338 | 0.0 | 1.6 | 0.00 | 0.18 | 0.18 | 87 | 1005.7 |
| 20260504230518 | 9 | 338 | 0.0 | 6.4 | 0.00 | 0.18 | 0.18 | 86 | 1005.8 |
| 20260504225520 | 9 | 338 | 4.8 | 9.7 | 0.00 | 0.18 | 0.18 | 84 | 1005.6 |
| 20260504225017 | 9 | 337 | 4.8 | 8.0 | 0.00 | 0.18 | 0.18 | 84 | 1005.5 |
| 20260504224559 | 9 | 339 | 4.8 | 8.0 | 0.00 | 0.18 | 0.18 | 84 | 1005.5 |
| 20260504224016 | 9 | 345 | 0.0 | 9.7 | 0.00 | 0.18 | 0.18 | 85 | 1005.5 |
| 20260504223518 | 9 | 328 | 4.8 | 14.5 | 0.00 | 0.18 | 0.18 | 84 | 1005.6 |
| 20260504223053 | 9 | 348 | 1.6 | 14.5 | 0.00 | 0.18 | 0.18 | 84 | 1005.4 |
| 20260504222517 | 10 | 65 | 4.8 | 14.5 | 0.00 | 0.18 | 0.18 | 83 | 1005.3 |
| 20260504222010 | 9 | 321 | 6.4 | 12.9 | 0.00 | 0.18 | 0.18 | 85 | 1005.2 |
| 20260504221558 | 9 | 156 | 1.6 | 4.8 | 0.00 | 0.18 | 0.18 | 86 | 1005.2 |
| 20260504221016 | 9 | 326 | 3.2 | 4.8 | 0.00 | 0.18 | 0.18 | 86 | 1005.3 |
| 20260504220519 | 8 | 326 | 0.0 | 4.8 | 0.00 | 0.18 | 0.18 | 87 | 1005.3 |
| 20260504215515 | 8 | 351 | 0.0 | 1.6 | 0.00 | 0.18 | 0.18 | 90 | 1005.2 |
| 20260504215017 | 8 | 351 | 0.0 | 3.2 | 0.00 | 0.18 | 0.18 | 90 | 1005.2 |
| 20260504214623 | 8 | 351 | 0.0 | 3.2 | 0.00 | 0.18 | 0.18 | 90 | 1005.1 |
| 20260504214022 | 8 | 351 | 0.0 | 1.6 | 0.00 | 0.18 | 0.18 | 90 | 1005.1 |
| 20260504213522 | 8 | 351 | 0.0 | 1.6 | 0.00 | 0.18 | 0.18 | 90 | 1005.1 |
| 20260504213100 | 8 | 351 | 0.0 | 3.2 | 0.00 | 0.18 | 0.18 | 90 | 1005.1 |
| 20260504212519 | 8 | 351 | 0.0 | 6.4 | 0.00 | 0.18 | 0.18 | 89 | 1005.0 |
| 20260504212019 | 8 | 351 | 0.0 | 8.0 | 0.00 | 0.18 | 0.18 | 89 | 1005.0 |
| 20260504211556 | 8 | 334 | 4.8 | 8.0 | 0.00 | 0.18 | 0.18 | 89 | 1005.0 |
| 20260504211015 | 7 | 295 | 1.6 | 8.0 | 0.00 | 0.18 | 0.18 | 90 | 1004.9 |
| 20260504210514 | 7 | 307 | 1.6 | 6.4 | 0.00 | 0.18 | 0.18 | 90 | 1004.8 |
| 20260504210110 | 7 | 135 | 1.6 | 6.4 | 0.00 | 0.18 | 0.18 | 90 | 1004.9 |
| 20260504205517 | 7 | 339 | 1.6 | 8.0 | 0.00 | 0.18 | 0.18 | 90 | 1004.8 |
| 20260504205015 | 7 | 339 | 1.6 | 8.0 | 0.00 | 0.18 | 0.18 | 90 | 1004.7 |
| 20260504204630 | 7 | 345 | 3.2 | 8.0 | 0.00 | 0.18 | 0.18 | 91 | 1004.9 |
| 20260504204019 | 7 | 345 | 3.2 | 8.0 | 0.00 | 0.18 | 0.18 | 91 | 1004.9 |
| 20260504203518 | 7 | 352 | 3.2 | 9.7 | 0.00 | 0.18 | 0.18 | 91 | 1004.9 |
| 20260504203136 | 7 | 332 | 6.4 | 14.5 | 0.00 | 0.18 | 0.18 | 92 | 1004.9 |
| 20260504202517 | 7 | 357 | 4.8 | 14.5 | 0.00 | 0.18 | 0.18 | 92 | 1004.8 |
| 20260504202016 | 7 | 343 | 6.4 | 11.3 | 0.00 | 0.18 | 0.18 | 92 | 1004.9 |
| 20260504201557 | 7 | 351 | 6.4 | 11.3 | 0.00 | 0.18 | 0.18 | 91 | 1004.8 |
| 20260504201015 | 7 | 315 | 4.8 | 9.7 | 0.00 | 0.18 | 0.18 | 91 | 1004.8 |
| 20260504200518 | 7 | 295 | 3.2 | 9.7 | 0.00 | 0.18 | 0.18 | 91 | 1004.7 |
| 20260504200111 | 7 | 347 | 3.2 | 9.7 | 0.00 | 0.18 | 0.18 | 91 | 1004.7 |
| 20260504195518 | 7 | 274 | 1.6 | 9.7 | 0.00 | 0.23 | 0.18 | 91 | 1004.5 |
| 20260504195017 | 7 | 299 | 4.8 | 12.9 | 0.00 | 0.23 | 0.18 | 92 | 1004.6 |
| 20260504194610 | 7 | 339 | 4.8 | 12.9 | 0.00 | 0.23 | 0.18 | 91 | 1004.7 |
| 20260504194018 | 7 | 309 | 8.0 | 14.5 | 0.00 | 0.23 | 0.18 | 91 | 1004.7 |
| 20260504193519 | 7 | 331 | 4.8 | 9.7 | 0.00 | 0.23 | 0.18 | 91 | 1004.7 |
| 20260504193109 | 7 | 309 | 3.2 | 9.7 | 0.00 | 0.23 | 0.18 | 90 | 1004.6 |
| 20260504192520 | 7 | 295 | 4.8 | 12.9 | 0.00 | 0.23 | 0.18 | 90 | 1004.6 |
| 20260504192018 | 7 | 295 | 3.2 | 14.5 | 0.00 | 0.23 | 0.18 | 90 | 1004.7 |
| 20260504191614 | 7 | 295 | 6.4 | 14.5 | 0.00 | 0.23 | 0.18 | 90 | 1004.6 |
| 20260504191019 | 7 | 295 | 4.8 | 12.9 | 0.00 | 0.23 | 0.18 | 89 | 1004.5 |
| 20260504190517 | 7 | 313 | 3.2 | 8.0 | 0.00 | 0.23 | 0.18 | 89 | 1004.4 |
| 20260504190118 | 7 | 310 | 3.2 | 8.0 | 0.00 | 0.23 | 0.18 | 89 | 1004.5 |
| 20260504185517 | 7 | 282 | 3.2 | 8.0 | 0.00 | 0.23 | 0.18 | 89 | 1004.4 |
| 20260504185021 | 7 | 328 | 3.2 | 8.0 | 0.00 | 0.23 | 0.18 | 89 | 1004.4 |
| 20260504184614 | 7 | 326 | 4.8 | 9.7 | 0.00 | 0.23 | 0.18 | 89 | 1004.5 |
| 20260504184024 | 7 | 295 | 3.2 | 12.9 | 0.00 | 0.23 | 0.18 | 88 | 1004.5 |
| 20260504183517 | 7 | 307 | 6.4 | 12.9 | 0.00 | 0.23 | 0.18 | 88 | 1004.5 |
| 20260504183110 | 7 | 328 | 3.2 | 8.0 | 0.00 | 0.23 | 0.18 | 89 | 1004.4 |
| 20260504182519 | 7 | 304 | 3.2 | 8.0 | 0.00 | 0.23 | 0.18 | 88 | 1004.4 |
| 20260504182017 | 7 | 261 | 3.2 | 9.7 | 0.00 | 0.23 | 0.18 | 88 | 1004.5 |
| 20260504181610 | 7 | 259 | 4.8 | 17.7 | 0.00 | 0.23 | 0.18 | 87 | 1004.6 |
| 20260504181017 | 7 | 295 | 8.0 | 19.3 | 0.03 | 0.23 | 0.18 | 86 | 1004.5 |
| 20260504180518 | 7 | 312 | 9.7 | 19.3 | 0.03 | 0.23 | 0.18 | 88 | 1004.6 |
| 20260504180128 | 7 | 295 | 3.2 | 12.9 | 0.05 | 0.23 | 0.18 | 87 | 1004.5 |
| 20260504175518 | 7 | 312 | 3.2 | 9.7 | 0.05 | 0.28 | 0.18 | 88 | 1004.6 |
| 20260504175017 | 7 | 309 | 3.2 | 9.7 | 0.10 | 0.28 | 0.18 | 89 | 1004.8 |
| 20260504174602 | 7 | 333 | 4.8 | 9.7 | 0.15 | 0.28 | 0.18 | 87 | 1004.9 |
| 20260504174012 | 7 | 295 | 3.2 | 8.0 | 0.15 | 0.28 | 0.18 | 87 | 1005.0 |
| 20260504173518 | 7 | 239 | 4.8 | 12.9 | 0.15 | 0.28 | 0.18 | 88 | 1005.0 |
| 20260504173025 | 7 | 327 | 8.0 | 12.9 | 0.18 | 0.28 | 0.18 | 87 | 1004.9 |
| 20260504172515 | 7 | 258 | 3.2 | 16.1 | 0.18 | 0.28 | 0.18 | 88 | 1004.8 |
| 20260504172018 | 7 | 324 | 6.4 | 16.1 | 0.18 | 0.28 | 0.18 | 88 | 1004.9 |
| 20260504171612 | 7 | 338 | 8.0 | 16.1 | 0.18 | 0.28 | 0.18 | 87 | 1004.9 |
| 20260504171024 | 7 | 243 | 6.4 | 16.1 | 0.15 | 0.23 | 0.15 | 87 | 1004.8 |
| 20260504170519 | 7 | 318 | 4.8 | 16.1 | 0.15 | 0.23 | 0.15 | 87 | 1005.0 |
| 20260504160112 | 11 | 197 | 11.3 | 22.5 | 0.00 | 0.18 | 0.00 | 54 | 1003.4 |